STARLINK-34289, 64225

Orbit data source: Space-Track

STARLINK-34289, 64225 is a payload satellite owned by SpaceX/Seattle (US) in LEO that was launched on Sat, 31 May 2025 UTC via an FALCON 9 launch vehicle from the Air Force Western Test Range (AFWTR). Payload-class satellites include a variety of spacecraft equipped with specific instruments for various scientific and technological missions. These include communications satellites like Starlink; space stations such as the ISS; scientific satellites like the Hubble; Earth observation satellites from companies like Planet Labs, Umbra, and HawkEye 360; GPS; miniature CubeSats for education and research; and military/defense satellites.

Loading next visibility...
Identifier
64225, 2025-117Y
Orbit
LEO
Country
Flag of USUS
Related business
Manufacturer
SpaceX/Seattle
Mission
Operational Commercial Communications
Bus & Motor
STARLINK V2MO, Unknown motor
Mass
575 kg wet, ~530 kg dry
Launch date (UTC)
2025-05-31 (1 year ago)
Launch vehicle
FALCON 9
Launch site
Air Force Western Test Range (AFWTR)
Object type
Payload
Rocket body
Debris
Shape & HBR
Box + 1 Pan, 17.7 m
Radar Cross Section
41.120 m², Large (>1 m²)

Expand to show TLE details & history
Last TLE update: 1 day ago

TLE from 1 day ago
0 STARLINK-34289
1 64225U 25117Y   26235.27173703  .00036165  00000-0  10766-2 0  9996
2 64225  53.1593 343.4740 0000929 115.4879 244.6220 15.34391639 70097
Epoch: 2026-08-23T06:31Z
TLE epoch observation values (Epoch: 2026-08-23T06:31:18.079Z)
Latitude
0.00001°
Longitude
-85.92151°
Altitude
463.902 km
Speed
7.636 km/s
True Right ascension
22h 53m 53s
True Declination
0° 00' 00"
Sunlit
Object was in full shadow at epoch
Visualization orbit readout
Latitude
Unknown
Longitude
Unknown
Altitude
Unknown
Speed
Unknown
Apparent Right ascension
Unknown
Apparent Declination
Unknown
Sunlit
N/A
Visualization observer readout
Local Sidereal Time
23:11:57
Azimuth
Unknown
Elevation
Unknown
Doppler factor
Unknown
Orbital elements
Apogee altitude
463.621 km
Perigee altitude
462.35 km
Semi-major axis
6,841.122 km
Eccentricity
0.00009
Inclination
53.1593°
RAAN
343.474°
Arg. of periapsis
115.4879°
True anomaly
244.61238°
Mean anomaly
244.622°
Eccentric anomaly
244.61719°
Mean motion
3.83577 °/min
Orbital period
93.85 mins
BSTAR
0.0010766
Loading maneuver chart data...
Computing Atmospheric mass density...
Loading historical data...
Loading historical data...
Loading historical data...
Loading historical data...
Loading historical data...
Loading historical data...
Loading historical data...

Documentation

Showing up to 5 results
|